When you browse on this site, cookies collect data to enhance your experience and personalize the content and advertising you see.
Visit our Privacy Policy to learn more. By continuing to use the site, you agree to this use of cookies and data.
  • In Czech Republic
  • List of Countries
  • For 7 days
  • Water Temperature
  • Satellite Maps
  • Weather Map
  • Weather Widgets
  • user-avatar
    Login

    Hourly Weather Zheleznaya Borovina

    Today, 22 May, Wednesday

    Time Temperature Precipitation Wind Pressure Humidity
    00:00 +14°C° 0 mm 3 mps 743 mmHg 94%
    01:00 +14°C° 0 mm 3 mps 743 mmHg 96%
    02:00 +14°C° 0 mm 2 mps 742 mmHg 97%
    03:00 +14°C° 0 mm 2 mps 742 mmHg 97%
    04:00 +14°C° 0 mm 2 mps 742 mmHg 97%
    05:00 +13°C° 0 mm 2 mps 742 mmHg 97%
    06:00 +15°C° 0 mm 2 mps 742 mmHg 88%
    07:00 +17°C° 0 mm 2 mps 742 mmHg 79%
    08:00 +20°C° 0 mm 1 mps 742 mmHg 70%
    09:00 +22°C° 0 mm 1 mps 742 mmHg 62%
    10:00 +23°C° 0 mm 2 mps 742 mmHg 55%
    11:00 +25°C° 0 mm 2 mps 742 mmHg 47%
    12:00 +25°C° 0 mm 2 mps 742 mmHg 46%
    13:00 +25°C° 0 mm 2 mps 742 mmHg 45%
    14:00 +25°C° 0 mm 2 mps 741 mmHg 44%
    15:00 +25°C° 0 mm 2 mps 741 mmHg 44%
    16:00 +25°C° 0 mm 1 mps 741 mmHg 44%
    17:00 +25°C° 0 mm 1 mps 741 mmHg 44%
    18:00 +23°C° 0 mm 1 mps 741 mmHg 50%
    19:00 +19°C° 0 mm 0 mps 741 mmHg 56%
    20:00 +17°C° 0 mm 0 mps 741 mmHg 62%
    21:00 +17°C° 0 mm 0 mps 741 mmHg 64%
    22:00 +16°C° 0 mm 0 mps 740 mmHg 65%
    23:00 +15°C° 0 mm 0 mps 740 mmHg 67%

    Tomorrow, 23 May, Thursday

    Time Temperature Precipitation Wind Pressure Humidity
    00:00 +15°C° 0 mm 0 mps 740 mmHg 69%
    01:00 +15°C° 0 mm 1 mps 740 mmHg 71%
    02:00 +15°C° 0 mm 1 mps 740 mmHg 73%
    03:00 +15°C° 0 mm 1 mps 740 mmHg 74%
    04:00 +15°C° 0 mm 1 mps 740 mmHg 75%
    05:00 +15°C° 0 mm 1 mps 740 mmHg 76%
    06:00 +18°C° 0 mm 1 mps 740 mmHg 69%
    07:00 +20°C° 0 mm 1 mps 741 mmHg 62%
    08:00 +22°C° 0 mm 1 mps 741 mmHg 56%
    09:00 +24°C° 0 mm 1 mps 741 mmHg 51%
    10:00 +25°C° 0 mm 1 mps 741 mmHg 46%
    11:00 +26°C° 0 mm 2 mps 741 mmHg 42%
    12:00 +26°C° 0 mm 2 mps 741 mmHg 44%
    13:00 +26°C° 0 mm 2 mps 741 mmHg 45%
    14:00 +26°C° 0 mm 2 mps 740 mmHg 47%
    15:00 +26°C° 0 mm 2 mps 740 mmHg 47%
    16:00 +26°C° 0 mm 2 mps 740 mmHg 47%
    17:00 +26°C° 0 mm 2 mps 740 mmHg 46%
    18:00 +24°C° 0 mm 2 mps 740 mmHg 54%
    19:00 +21°C° 0 mm 2 mps 740 mmHg 61%
    20:00 +20°C° 0 mm 2 mps 740 mmHg 68%
    21:00 +20°C° 0 mm 1 mps 740 mmHg 73%
    22:00 +18°C° 0 mm 1 mps 740 mmHg 77%
    23:00 +16°C° 0 mm 1 mps 740 mmHg 82%

    Day after tomorrow, 24 May, Friday

    Time Temperature Precipitation Wind Pressure Humidity
    00:00 +16°C° 0 mm 1 mps 740 mmHg 85%
    01:00 +15°C° 0 mm 1 mps 740 mmHg 87%
    02:00 +15°C° 0 mm 1 mps 740 mmHg 89%
    03:00 +15°C° 0 mm 1 mps 740 mmHg 89%
    04:00 +15°C° 0 mm 1 mps 740 mmHg 88%
    05:00 +14°C° 0 mm 0 mps 741 mmHg 88%
    06:00 +17°C° 0 mm 0 mps 741 mmHg 80%
    07:00 +19°C° 0 mm 0 mps 741 mmHg 71%
    08:00 +21°C° 0 mm 0 mps 741 mmHg 63%
    09:00 +25°C° 0.2 mm 1 mps 741 mmHg 58%
    10:00 +26°C° 0.2 mm 1 mps 741 mmHg 53%
    11:00 +27°C° 0.2 mm 1 mps 741 mmHg 47%
    12:00 +28°C° 0 mm 1 mps 741 mmHg 45%
    13:00 +28°C° 0 mm 1 mps 741 mmHg 43%
    14:00 +29°C° 0 mm 1 mps 741 mmHg 41%
    15:00 +27°C° 0 mm 1 mps 740 mmHg 47%
    16:00 +26°C° 0 mm 1 mps 740 mmHg 53%
    17:00 +24°C° 0 mm 1 mps 740 mmHg 60%
    18:00 +23°C° 0 mm 1 mps 740 mmHg 66%
    19:00 +21°C° 0 mm 1 mps 740 mmHg 72%
    20:00 +20°C° 0 mm 1 mps 740 mmHg 79%
    21:00 +19°C° 0.2 mm 1 mps 740 mmHg 81%
    22:00 +18°C° 0.2 mm 1 mps 739 mmHg 84%
    23:00 +18°C° 0.2 mm 1 mps 739 mmHg 87%

    25 May, Saturday

    Time Temperature Precipitation Wind Pressure Humidity
    00:00 +16°C° 0.2 mm 1 mps 739 mmHg 88%
    01:00 +16°C° 0.2 mm 1 mps 739 mmHg 90%
    02:00 +15°C° 0.2 mm 1 mps 739 mmHg 91%
    03:00 +15°C° 0.7 mm 1 mps 739 mmHg 92%
    04:00 +15°C° 0.7 mm 1 mps 739 mmHg 93%
    05:00 +15°C° 0.7 mm 1 mps 738 mmHg 94%
    06:00 +18°C° 0.1 mm 1 mps 739 mmHg 89%
    07:00 +19°C° 0.1 mm 1 mps 739 mmHg 84%
    08:00 +21°C° 0.1 mm 1 mps 739 mmHg 79%
    09:00 +21°C° 1.3 mm 2 mps 739 mmHg 77%
    10:00 +21°C° 1.3 mm 3 mps 738 mmHg 75%
    11:00 +22°C° 1.3 mm 3 mps 738 mmHg 73%
    12:00 +21°C° 1.4 mm 3 mps 738 mmHg 77%
    13:00 +20°C° 1.4 mm 3 mps 738 mmHg 81%
    14:00 +19°C° 1.4 mm 3 mps 738 mmHg 84%
    15:00 +20°C° 0.5 mm 3 mps 738 mmHg 83%
    16:00 +20°C° 0.5 mm 3 mps 738 mmHg 82%
    17:00 +20°C° 0.5 mm 2 mps 738 mmHg 81%
    18:00 +19°C° 0 mm 2 mps 738 mmHg 82%
    19:00 +17°C° 0 mm 2 mps 738 mmHg 83%
    20:00 +16°C° 0 mm 2 mps 738 mmHg 84%
    21:00 +15°C° 0 mm 2 mps 738 mmHg 87%
    22:00 +13°C° 0 mm 3 mps 739 mmHg 90%
    23:00 +12°C° 0 mm 3 mps 739 mmHg 92%

    26 May, Sunday

    Time Temperature Precipitation Wind Pressure Humidity
    00:00 +12°C° 0 mm 3 mps 739 mmHg 93%
    01:00 +11°C° 0 mm 3 mps 739 mmHg 93%
    02:00 +10°C° 0 mm 3 mps 739 mmHg 93%
    03:00 +10°C° 0 mm 2 mps 740 mmHg 93%
    04:00 +9°C° 0 mm 2 mps 740 mmHg 93%
    05:00 +9°C° 0 mm 2 mps 740 mmHg 93%
    06:00 +12°C° 0 mm 2 mps 740 mmHg 85%
    07:00 +12°C° 0 mm 3 mps 740 mmHg 76%
    08:00 +14°C° 0 mm 3 mps 740 mmHg 68%
    09:00 +16°C° 0 mm 3 mps 740 mmHg 62%
    10:00 +18°C° 0 mm 4 mps 740 mmHg 56%
    11:00 +19°C° 0 mm 4 mps 740 mmHg 50%
    12:00 +19°C° 0.1 mm 4 mps 740 mmHg 54%
    13:00 +18°C° 0.1 mm 4 mps 740 mmHg 57%
    14:00 +18°C° 0.1 mm 4 mps 739 mmHg 61%
    15:00 +18°C° 0.1 mm 4 mps 739 mmHg 63%
    16:00 +18°C° 0.1 mm 4 mps 739 mmHg 65%
    17:00 +18°C° 0.1 mm 4 mps 739 mmHg 67%
    18:00 +17°C° 0.2 mm 3 mps 739 mmHg 73%
    19:00 +14°C° 0.2 mm 3 mps 739 mmHg 79%
    20:00 +13°C° 0.2 mm 2 mps 738 mmHg 85%
    21:00 +12°C° 0 mm 3 mps 738 mmHg 86%
    22:00 +12°C° 0 mm 3 mps 738 mmHg 86%
    23:00 +11°C° 0 mm 3 mps 738 mmHg 86%

    27 May, Monday

    Time Temperature Precipitation Wind Pressure Humidity
    00:00 +10°C° 0 mm 3 mps 739 mmHg 88%
    01:00 +9°C° 0 mm 3 mps 739 mmHg 90%
    02:00 +8°C° 0 mm 3 mps 739 mmHg 92%
    03:00 +7°C° 0 mm 4 mps 739 mmHg 91%
    04:00 +7°C° 0 mm 4 mps 739 mmHg 90%
    05:00 +6°C° 0 mm 4 mps 740 mmHg 89%
    06:00 +8°C° 0 mm 5 mps 740 mmHg 82%
    07:00 +9°C° 0 mm 5 mps 740 mmHg 74%
    08:00 +10°C° 0 mm 6 mps 741 mmHg 66%
    09:00 +13°C° 0 mm 6 mps 741 mmHg 61%
    10:00 +14°C° 0 mm 6 mps 741 mmHg 56%
    11:00 +15°C° 0 mm 6 mps 742 mmHg 52%
    12:00 +15°C° 0.1 mm 6 mps 742 mmHg 54%
    13:00 +15°C° 0.1 mm 6 mps 742 mmHg 57%
    14:00 +15°C° 0.1 mm 6 mps 743 mmHg 60%
    15:00 +15°C° 0.1 mm 6 mps 743 mmHg 61%
    16:00 +15°C° 0.1 mm 5 mps 743 mmHg 61%
    17:00 +15°C° 0.1 mm 5 mps 743 mmHg 61%
    18:00 +13°C° 0 mm 4 mps 743 mmHg 68%
    19:00 +13°C° 0 mm 2 mps 744 mmHg 74%
    20:00 +12°C° 0 mm 1 mps 744 mmHg 81%
    21:00 +11°C° 0 mm 1 mps 744 mmHg 84%
    22:00 +10°C° 0 mm 1 mps 744 mmHg 88%
    23:00 +9°C° 0 mm 1 mps 745 mmHg 92%
    Show more